This is the latest recevied weather packets stored in our database for station/object VU3ZAG-WX. If no packets are shown the sender has not sent any weather packets the latest 10 day(s).
| Time | Temp. | Humidity | Pressure | Rain* | Wind** | Luminosity | Snow |
|---|---|---|---|---|---|---|---|
| 1777797971 | 38.89° C | 48% | 1008 hPa | - | - | - | - |
| 1777797361 | 38.89° C | 50% | 1008.2 hPa | - | - | - | - |
| 1777796740 | 38.89° C | 48% | 1008.3 hPa | - | - | - | - |
| 1777796122 | 38.89° C | 50% | 1008.4 hPa | - | - | - | - |
| 1777795511 | 38.89° C | 48% | 1008.5 hPa | - | - | - | - |
| 1777794899 | 38.33° C | 51% | 1008.7 hPa | - | - | - | - |
| 1777793074 | 38.33° C | 47% | 1009.1 hPa | - | - | - | - |
| 1777792461 | 38.33° C | 47% | 1009.2 hPa | - | - | - | - |
| 1777791854 | 38.33° C | 48% | 1009.4 hPa | - | - | - | - |
| 1777791248 | 38.33° C | 47% | 1009.5 hPa | - | - | - | - |
| 1777790632 | 38.33° C | 50% | 1009.6 hPa | - | - | - | - |
| 1777789421 | 38.33° C | 47% | 1009.8 hPa | - | - | - | - |
| 1777788815 | 38.33° C | 47% | 1009.9 hPa | - | - | - | - |
| 1777788210 | 38.33° C | 48% | 1009.9 hPa | - | - | - | - |
| 1777787604 | 38.33° C | 47% | 1010 hPa | - | - | - | - |
| 1777786998 | 38.33° C | 47% | 1010.1 hPa | - | - | - | - |
| 1777786392 | 37.78° C | 47% | 1010.1 hPa | - | - | - | - |
| 1777785787 | 37.78° C | 46% | 1010.2 hPa | - | - | - | - |
| 1777785181 | 37.78° C | 46% | 1010.2 hPa | - | - | - | - |
| 1777784575 | 37.22° C | 45% | 1010.3 hPa | - | - | - | - |
| 1777783969 | 36.67° C | 47% | 1010.4 hPa | - | - | - | - |
| 1777783364 | 36.11° C | 50% | 1010.4 hPa | - | - | - | - |
| 1777782758 | 35.56° C | 52% | 1010.5 hPa | - | - | - | - |
| 1777782152 | 35.56° C | 53% | 1010.5 hPa | - | - | - | - |
| 1777781546 | 35.56° C | 49% | 1010.4 hPa | - | - | - | - |
* Rain since midnight (hover to see other rain measurements)
** Current wind speed in m/s (hover to see current wind gust speed)